Time,TemperatureF,DewpointF,PressureIn,WindDirection,WindDirectionDegrees,WindSpeedMPH,WindSpeedGustMPH,Humidity,HourlyPrecipIn,Conditions,Clouds,dailyrainin,SoftwareType,DateUTC
2013-01-18 00:14:00,-999.0,-99.9,29.94,NE,43,3.0,-999.0,-999,-99.99,,,0.00,weatherlink.com 1.10,2013-01-18 05:14:00,
2013-01-18 00:29:00,-999.0,-99.9,29.94,NE,35,5.0,-999.0,-999,-99.99,,,0.00,weatherlink.com 1.10,2013-01-18 05:29:00,
2013-01-18 00:44:00,-999.0,-99.9,29.94,NE,43,7.0,-999.0,-999,-99.99,,,0.00,weatherlink.com 1.10,2013-01-18 05:44:00,
2013-01-18 00:59:00,-999.0,-99.9,29.93,North,10,5.0,-999.0,-999,-99.99,,,0.00,weatherlink.com 1.10,2013-01-18 05:59:00,
2013-01-18 01:14:00,-999.0,-99.9,29.92,NE,45,4.0,-999.0,-999,-99.99,,,0.00,weatherlink.com 1.10,2013-01-18 06:14:00,
2013-01-18 01:29:00,-999.0,-99.9,29.95,NE,54,5.0,-999.0,-999,-99.99,,,0.00,weatherlink.com 1.10,2013-01-18 06:29:00,
2013-01-18 01:44:00,-999.0,-99.9,29.95,NNW,348,2.0,-999.0,-999,-99.99,,,0.00,weatherlink.com 1.10,2013-01-18 06:44:00,
2013-01-18 01:59:00,-999.0,-99.9,29.97,NNE,14,6.0,-999.0,-999,-99.99,,,0.00,weatherlink.com 1.10,2013-01-18 06:59:00,
2013-01-18 02:14:00,-999.0,-99.9,29.98,NNE,22,7.0,-999.0,-999,-99.99,,,0.00,weatherlink.com 1.10,2013-01-18 07:14:00,
2013-01-18 02:29:00,-999.0,-99.9,30.00,NE,54,8.0,-999.0,-999,-99.99,,,0.00,weatherlink.com 1.10,2013-01-18 07:29:00,
2013-01-18 02:44:00,-999.0,-99.9,29.99,NE,49,9.0,-999.0,-999,-99.99,,,0.00,weatherlink.com 1.10,2013-01-18 07:44:00,
2013-01-18 02:59:00,-999.0,-99.9,29.97,NE,46,2.0,-999.0,-999,-99.99,,,0.00,weatherlink.com 1.10,2013-01-18 07:59:00,
2013-01-18 03:14:00,-999.0,-99.9,29.98,NE,41,12.0,-999.0,-999,-99.99,,,0.00,weatherlink.com 1.10,2013-01-18 08:14:00,
2013-01-18 03:29:00,-999.0,-99.9,30.00,NNW,327,1.0,-999.0,-999,-99.99,,,0.00,weatherlink.com 1.10,2013-01-18 08:29:00,
2013-01-18 03:44:00,-999.0,-99.9,29.99,NNE,19,4.0,-999.0,-999,-99.99,,,0.00,weatherlink.com 1.10,2013-01-18 08:44:00,
2013-01-18 03:59:00,-999.0,-99.9,29.98,NE,48,5.0,-999.0,-999,-99.99,,,0.00,weatherlink.com 1.10,2013-01-18 08:59:00,
2013-01-18 04:14:00,-999.0,-99.9,30.00,NNE,20,3.0,-999.0,-999,-99.99,,,0.00,weatherlink.com 1.10,2013-01-18 09:14:00,
2013-01-18 04:29:00,-999.0,-99.9,29.99,NNE,24,4.0,-999.0,-999,-99.99,,,0.00,weatherlink.com 1.10,2013-01-18 09:29:00,
2013-01-18 04:44:00,-999.0,-99.9,29.99,NNE,32,0.0,-999.0,-999,-99.99,,,0.00,weatherlink.com 1.10,2013-01-18 09:44:00,
2013-01-18 04:59:00,-999.0,-99.9,30.00,NW,306,11.0,-999.0,-999,-99.99,,,0.00,weatherlink.com 1.10,2013-01-18 09:59:00,
2013-01-18 05:14:00,-999.0,-99.9,30.01,NNE,17,6.0,-999.0,-999,-99.99,,,0.00,weatherlink.com 1.10,2013-01-18 10:14:00,
2013-01-18 05:29:00,-999.0,-99.9,30.02,NNE,13,0.0,-999.0,-999,-99.99,,,0.00,weatherlink.com 1.10,2013-01-18 10:29:00,
2013-01-18 05:44:00,-999.0,-99.9,30.03,NNE,14,0.0,-999.0,-999,-99.99,,,0.00,weatherlink.com 1.10,2013-01-18 10:44:00,
2013-01-18 05:59:00,-999.0,-99.9,30.06,NE,52,5.0,-999.0,-999,-99.99,,,0.00,weatherlink.com 1.10,2013-01-18 10:59:00,
2013-01-18 06:14:00,-999.0,-99.9,30.07,NW,307,4.0,-999.0,-999,-99.99,,,0.00,weatherlink.com 1.10,2013-01-18 11:14:00,
2013-01-18 06:29:00,-999.0,-99.9,30.08,NE,53,4.0,-999.0,-999,-99.99,,,0.00,weatherlink.com 1.10,2013-01-18 11:29:00,
2013-01-18 06:44:00,-999.0,-99.9,30.09,WNW,303,2.0,-999.0,-999,-99.99,,,0.00,weatherlink.com 1.10,2013-01-18 11:44:00,
2013-01-18 06:59:00,-999.0,-99.9,30.10,WSW,253,2.0,-999.0,-999,-99.99,,,0.00,weatherlink.com 1.10,2013-01-18 11:59:00,
2013-01-18 07:14:00,-999.0,-99.9,30.12,NNE,15,9.0,-999.0,-999,-99.99,,,0.00,weatherlink.com 1.10,2013-01-18 12:14:00,
2013-01-18 07:29:00,-999.0,-99.9,30.14,NNE,13,3.0,-999.0,-999,-99.99,,,0.00,weatherlink.com 1.10,2013-01-18 12:29:00,
2013-01-18 07:44:00,-999.0,-99.9,30.15,NNE,24,4.0,-999.0,-999,-99.99,,,0.00,weatherlink.com 1.10,2013-01-18 12:44:00,
2013-01-18 07:59:00,26.3,9.0,30.16,NE,46,3.0,-999.0,48,-99.99,,,0.00,weatherlink.com 1.10,2013-01-18 12:59:00,
2013-01-18 08:14:00,26.4,9.0,30.18,NNE,17,4.0,-999.0,47,-99.99,,,0.00,weatherlink.com 1.10,2013-01-18 13:14:00,
2013-01-18 08:29:00,26.1,9.0,30.20,NW,316,5.0,-999.0,49,-99.99,,,0.00,weatherlink.com 1.10,2013-01-18 13:29:00,
2013-01-18 08:44:00,26.1,8.0,30.22,North,4,4.0,-999.0,47,-99.99,,,0.00,weatherlink.com 1.10,2013-01-18 13:44:00,
2013-01-18 08:59:00,25.8,7.0,30.23,NE,35,6.0,-999.0,45,-99.99,,,0.00,weatherlink.com 1.10,2013-01-18 13:59:00,
2013-01-18 09:14:00,26.0,6.0,30.25,NNE,18,10.0,-999.0,43,-99.99,,,0.00,weatherlink.com 1.10,2013-01-18 14:14:00,
2013-01-18 09:29:00,26.6,8.0,30.25,NNW,343,12.0,-999.0,45,-99.99,,,0.00,weatherlink.com 1.10,2013-01-18 14:29:00,
2013-01-18 09:44:00,27.5,8.0,30.27,NNE,19,4.0,-999.0,44,-99.99,,,0.00,weatherlink.com 1.10,2013-01-18 14:44:00,
2013-01-18 09:59:00,28.8,9.0,30.28,WNW,284,4.0,-999.0,43,-99.99,,,0.00,weatherlink.com 1.10,2013-01-18 14:59:00,
2013-01-18 10:14:00,27.6,7.0,30.28,West,277,0.0,-999.0,41,-99.99,,,0.00,weatherlink.com 1.10,2013-01-18 15:14:00,
2013-01-18 10:29:00,28.1,7.0,30.30,North,349,3.0,-999.0,40,-99.99,,,0.00,weatherlink.com 1.10,2013-01-18 15:29:00,
2013-01-18 10:44:00,28.4,6.0,30.31,NW,324,5.0,-999.0,38,-99.99,,,0.00,weatherlink.com 1.10,2013-01-18 15:44:00,
2013-01-18 10:59:00,28.7,7.0,30.31,NE,42,2.0,-999.0,40,-99.99,,,0.00,weatherlink.com 1.10,2013-01-18 15:59:00,
2013-01-18 11:14:00,28.5,6.0,30.31,NW,325,3.0,-999.0,39,-99.99,,,0.00,weatherlink.com 1.10,2013-01-18 16:14:00,
2013-01-18 11:29:00,28.4,6.0,30.31,NNW,328,5.0,-999.0,38,-99.99,,,0.00,weatherlink.com 1.10,2013-01-18 16:29:00,
2013-01-18 11:44:00,28.7,5.0,30.30,WNW,284,9.0,-999.0,37,-99.99,,,0.00,weatherlink.com 1.10,2013-01-18 16:44:00,
2013-01-18 11:59:00,28.8,6.0,30.31,NW,304,3.0,-999.0,38,-99.99,,,0.00,weatherlink.com 1.10,2013-01-18 16:59:00,
2013-01-18 12:14:00,28.7,5.0,30.31,NNE,33,5.0,-999.0,37,-99.99,,,0.00,weatherlink.com 1.10,2013-01-18 17:14:00,
2013-01-18 12:29:00,29.1,5.0,30.31,NE,43,4.0,-999.0,35,-99.99,,,0.00,weatherlink.com 1.10,2013-01-18 17:29:00,
2013-01-18 12:44:00,29.8,7.0,30.32,ENE,68,2.0,-999.0,38,-99.99,,,0.00,weatherlink.com 1.10,2013-01-18 17:44:00,
2013-01-18 12:59:00,28.5,4.0,30.32,SW,234,3.0,-999.0,35,-99.99,,,0.00,weatherlink.com 1.10,2013-01-18 17:59:00,
2013-01-18 13:14:00,29.4,3.0,30.32,WSW,253,5.0,-999.0,33,-99.99,,,0.00,weatherlink.com 1.10,2013-01-18 18:14:00,
2013-01-18 13:29:00,29.1,5.0,30.32,NW,314,1.0,-999.0,36,-99.99,,,0.00,weatherlink.com 1.10,2013-01-18 18:29:00,
2013-01-18 13:44:00,30.0,6.0,30.32,North,350,2.0,-999.0,36,-99.99,,,0.00,weatherlink.com 1.10,2013-01-18 18:44:00,
2013-01-18 13:59:00,29.8,5.0,30.32,ENE,65,1.0,-999.0,35,-99.99,,,0.00,weatherlink.com 1.10,2013-01-18 18:59:00,
2013-01-18 14:14:00,28.7,4.0,30.32,WSW,256,10.0,-999.0,35,-99.99,,,0.00,weatherlink.com 1.10,2013-01-18 19:14:00,
2013-01-18 14:29:00,28.7,5.0,30.33,SW,227,3.0,-999.0,37,-99.99,,,0.00,weatherlink.com 1.10,2013-01-18 19:29:00,
2013-01-18 14:44:00,28.1,3.0,30.34,WSW,250,2.0,-999.0,34,-99.99,,,0.00,weatherlink.com 1.10,2013-01-18 19:44:00,
2013-01-18 14:59:00,28.4,4.0,30.34,NNE,14,2.0,-999.0,35,-99.99,,,0.00,weatherlink.com 1.10,2013-01-18 19:59:00,
2013-01-18 15:14:00,28.1,4.0,30.34,SW,226,0.0,-999.0,36,-99.99,,,0.00,weatherlink.com 1.10,2013-01-18 20:14:00,
2013-01-18 15:29:00,27.3,3.0,30.34,West,280,2.0,-999.0,35,-99.99,,,0.00,weatherlink.com 1.10,2013-01-18 20:29:00,
2013-01-18 15:44:00,27.3,2.0,30.34,West,279,4.0,-999.0,34,-99.99,,,0.00,weatherlink.com 1.10,2013-01-18 20:44:00,
2013-01-18 15:59:00,26.9,2.0,30.35,SW,234,2.0,-999.0,34,-99.99,,,0.00,weatherlink.com 1.10,2013-01-18 20:59:00,
2013-01-18 16:14:00,26.6,3.0,30.35,NNW,343,1.0,-999.0,37,-99.99,,,0.00,weatherlink.com 1.10,2013-01-18 21:14:00,
2013-01-18 16:29:00,26.6,5.0,30.35,SW,226,3.0,-999.0,39,-99.99,,,0.00,weatherlink.com 1.10,2013-01-18 21:29:00,
2013-01-18 16:44:00,-999.0,-99.9,30.35,WSW,254,4.0,-999.0,-999,-99.99,,,0.00,weatherlink.com 1.10,2013-01-18 21:44:00,
2013-01-18 16:59:00,-999.0,-99.9,30.35,SSW,209,1.0,-999.0,-999,-99.99,,,0.00,weatherlink.com 1.10,2013-01-18 21:59:00,
2013-01-18 17:14:00,-999.0,-99.9,30.36,WSW,258,1.0,-999.0,-999,-99.99,,,0.00,weatherlink.com 1.10,2013-01-18 22:14:00,
2013-01-18 17:29:00,-999.0,-99.9,30.35,SSE,159,0.0,-999.0,-999,-99.99,,,0.00,weatherlink.com 1.10,2013-01-18 22:29:00,
2013-01-18 17:44:00,-999.0,-99.9,30.36,South,183,1.0,-999.0,-999,-99.99,,,0.00,weatherlink.com 1.10,2013-01-18 22:44:00,
2013-01-18 17:59:00,-999.0,-99.9,30.37,SSW,196,0.0,-999.0,-999,-99.99,,,0.00,weatherlink.com 1.10,2013-01-18 22:59:00,
2013-01-18 18:14:00,-999.0,-99.9,30.37,SW,227,1.0,-999.0,-999,-99.99,,,0.00,weatherlink.com 1.10,2013-01-18 23:14:00,
2013-01-18 18:29:00,-999.0,-99.9,30.38,SW,230,3.0,-999.0,-999,-99.99,,,0.00,weatherlink.com 1.10,2013-01-18 23:29:00,
2013-01-18 18:44:00,-999.0,-99.9,30.39,SW,224,3.0,-999.0,-999,-99.99,,,0.00,weatherlink.com 1.10,2013-01-18 23:44:00,
2013-01-18 19:00:00,-999.0,-99.9,30.40,SW,227,1.0,-999.0,-999,-99.99,,,0.00,weatherlink.com 1.10,2013-01-19 00:00:00,
2013-01-18 19:14:00,-999.0,-99.9,30.41,SW,220,4.0,-999.0,-999,-99.99,,,0.00,weatherlink.com 1.10,2013-01-19 00:14:00,
2013-01-18 19:29:00,-999.0,-99.9,30.40,SW,218,4.0,-999.0,-999,-99.99,,,0.00,weatherlink.com 1.10,2013-01-19 00:29:00,
2013-01-18 19:44:00,-999.0,-99.9,30.40,SW,236,4.0,-999.0,-999,-99.99,,,0.00,weatherlink.com 1.10,2013-01-19 00:44:00,
2013-01-18 19:59:00,-999.0,-99.9,30.41,West,269,1.0,-999.0,-999,-99.99,,,0.00,weatherlink.com 1.10,2013-01-19 00:59:00,
2013-01-18 20:14:00,-999.0,-99.9,30.40,WSW,237,3.0,-999.0,-999,-99.99,,,0.00,weatherlink.com 1.10,2013-01-19 01:14:00,
2013-01-18 20:29:00,-999.0,-99.9,30.39,WSW,250,2.0,-999.0,-999,-99.99,,,0.00,weatherlink.com 1.10,2013-01-19 01:29:00,
2013-01-18 20:44:00,-999.0,-99.9,30.40,SW,225,3.0,-999.0,-999,-99.99,,,0.00,weatherlink.com 1.10,2013-01-19 01:44:00,
2013-01-18 20:59:00,-999.0,-99.9,30.40,WSW,247,2.0,-999.0,-999,-99.99,,,0.00,weatherlink.com 1.10,2013-01-19 01:59:00,
2013-01-18 21:14:00,-999.0,-99.9,30.39,SW,223,2.0,-999.0,-999,-99.99,,,0.00,weatherlink.com 1.10,2013-01-19 02:14:00,
2013-01-18 21:29:00,-999.0,-99.9,30.39,SW,232,3.0,-999.0,-999,-99.99,,,0.00,weatherlink.com 1.10,2013-01-19 02:29:00,
2013-01-18 21:44:00,-999.0,-99.9,30.39,SSW,199,3.0,-999.0,-999,-99.99,,,0.00,weatherlink.com 1.10,2013-01-19 02:44:00,
2013-01-18 21:59:00,-999.0,-99.9,30.38,SW,224,1.0,-999.0,-999,-99.99,,,0.00,weatherlink.com 1.10,2013-01-19 02:59:00,
2013-01-18 22:14:00,-999.0,-99.9,30.38,SW,235,0.0,-999.0,-999,-99.99,,,0.00,weatherlink.com 1.10,2013-01-19 03:14:00,
2013-01-18 22:29:00,-999.0,-99.9,30.37,WSW,251,2.0,-999.0,-999,-99.99,,,0.00,weatherlink.com 1.10,2013-01-19 03:29:00,
2013-01-18 22:44:00,-999.0,-99.9,30.36,SW,234,2.0,-999.0,-999,-99.99,,,0.00,weatherlink.com 1.10,2013-01-19 03:44:00,
2013-01-18 22:59:00,-999.0,-99.9,30.36,SW,217,2.0,-999.0,-999,-99.99,,,0.00,weatherlink.com 1.10,2013-01-19 03:59:00,
2013-01-18 23:14:00,-999.0,-99.9,30.35,WSW,240,1.0,-999.0,-999,-99.99,,,0.00,weatherlink.com 1.10,2013-01-19 04:14:00,
2013-01-18 23:29:00,-999.0,-99.9,30.35,WSW,245,4.0,-999.0,-999,-99.99,,,0.00,weatherlink.com 1.10,2013-01-19 04:29:00,
2013-01-18 23:44:00,-999.0,-99.9,30.35,WSW,254,1.0,-999.0,-999,-99.99,,,0.00,weatherlink.com 1.10,2013-01-19 04:44:00,
2013-01-18 23:59:00,-999.0,-99.9,30.35,WSW,246,3.0,-999.0,-999,-99.99,,,0.00,weatherlink.com 1.10,2013-01-19 04:59:00,